Tracking 31027 objects as of 19-Jul-2025
HD Live streaming from Space Station
objects crossing your sky now

LASARSAT

Track LASARSAT now!
10-day predictions


NORAD ID: 62391
Int'l Code: 2024-247Q
Perigee: 485.8 km
Apogee: 499.0 km
Inclination: 45.0 °
Period: 94.3 minutes
Semi major axis: 6863 km
RCS: Unknown
Launch date: December 21, 2024
Source: Czech Republic (former Czechoslovakia) (CZCH)
Launch site: AIR FORCE WESTERN TEST RANGE (AFWTR)
Your satellite tracking list
SL-14 DEB
Track 1 satellite(s)




NASA's NSSDC Master Catalog

Two Line Element Set (TLE):
1 62391U 24247Q   25199.58284269  .00011673  00000-0  44443-3 0  9990
2 62391  44.9787 307.3558 0009613 276.8414  83.1375 15.26827252 32028
Source of the keplerian elements: AFSPC